Vorticity
nan nan nan nan nan nan nan nan nan nan nan nan nan nan nan nan nan nan nan nan nan nan nan nan nan nan nan nan nan nan nan nan nan nan nan nan nan nan nan nan nan nan nan
nan 7 7 8 9 13 11 13 13 12 11 10 10 11 9 9 10 9 9 8 8 9 9 9 8 7 8 7 8 10 9 8 11 5 9 9 12 11 10 8 9 13 nan
nan 12 8 6 9 13 13 15 14 13 13 11 11 11 9 9 9 9 9 7 10 10 9 9 8 7 8 7 9 10 9 9 9 7 9 9 10 8 8 9 9 9 nan
nan 11 10 8 9 10 15 18 15 13 13 13 13 11 10 10 9 10 9 9 11 10 9 9 9 8 9 9 9 7 9 9 8 10 9 10 8 9 8 7 8 9 nan
nan 10 11 9 11 10 15 19 15 14 15 14 12 11 11 8 15 13 10 11 10 10 10 9 10 11 13 12 11 11 10 8 8 9 8 7 9 11 9 7 8 9 nan
nan 12 11 8 11 11 16 22 15 15 15 13 12 12 8 8 15 15 14 12 10 9 8 9 8 8 8 7 6 11 15 13 11 9 9 9 9 8 10 10 8 7 nan
nan 12 10 10 12 10 17 25 15 14 13 12 13 12 9 11 10 11 12 13 11 9 7 8 7 8 7 5 5 6 6 8 12 15 12 12 11 12 10 10 9 8 nan
nan 10 11 13 13 8 21 24 14 14 12 12 12 11 7 11 11 9 9 10 9 10 9 9 10 9 11 10 8 8 9 11 11 14 13 13 18 16 10 10 9 8 nan
nan 10 10 11 12 12 25 23 13 11 12 13 13 10 8 10 11 9 7 6 9 10 10 13 15 7 12 12 10 11 9 7 7 12 12 18 21 12 9 8 12 9 nan
nan 11 12 13 7 18 27 17 14 13 12 13 14 11 12 10 8 8 3 9 10 8 10 2 9 23 15 9 8 11 12 11 8 6 7 11 12 12 9 8 7 6 nan
nan 12 10 13 21 21 19 14 14 14 13 12 13 14 14 10 10 6 8 10 10 8 8 9 7 15 11 8 10 16 15 11 9 9 10 11 12 11 9 10 10 8 nan
nan 12 16 20 24 19 14 11 11 11 10 11 10 9 10 11 12 10 11 14 18 12 10 11 15 12 11 11 13 14 14 7 9 8 8 10 11 12 12 11 10 8 nan
nan 7 7 28 29 15 14 9 10 10 9 9 7 7 10 10 8 8 13 12 13 18 13 12 14 12 10 12 15 10 5 6 10 8 8 10 10 11 11 12 10 7 nan
nan 14 18 20 13 11 10 10 10 10 10 9 8 9 11 11 8 8 7 6 6 14 15 8 6 8 9 12 11 11 9 10 8 11 9 8 13 12 9 9 10 9 nan
nan 17 21 21 10 7 12 17 17 14 12 11 10 12 12 13 13 14 12 13 12 8 7 8 7 8 10 10 11 11 12 12 11 10 11 10 9 9 11 11 10 9 nan
nan 18 18 14 13 11 9 2 11 25 21 17 18 14 11 17 16 10 9 16 20 8 4 8 8 10 11 11 10 10 11 11 13 11 11 10 11 12 11 9 10 10 nan
nan 14 15 12 11 10 10 10 2 1 8 12 18 20 23 16 8 10 13 13 4 2 10 11 10 11 12 11 9 11 11 11 11 11 10 10 10 10 10 10 10 12 nan
nan 14 11 10 10 11 11 12 11 9 2 -4 6 17 16 13 12 12 7 4 5 13 14 11 10 11 12 12 8 10 11 13 10 10 11 11 11 11 11 10 10 9 nan
nan 13 11 10 13 13 12 11 10 9 7 9 7 7 8 11 14 10 3 4 10 12 12 11 11 11 10 10 10 12 10 10 10 10 10 10 11 10 8 11 9 11 nan
nan 12 5 10 14 12 10 11 11 11 10 9 8 8 8 8 8 7 10 10 11 10 12 13 10 11 13 11 11 9 11 11 10 9 10 10 9 10 12 10 9 10 nan
nan 13 12 12 9 8 11 12 12 10 9 11 11 9 7 10 10 11 13 12 11 10 12 12 12 12 10 11 11 10 10 10 10 10 11 11 10 10 10 11 11 8 nan
nan 15 13 10 9 12 12 12 11 10 11 10 10 8 11 14 13 12 11 11 14 15 12 11 14 14 13 14 11 9 10 10 11 11 10 12 12 11 11 9 8 11 nan
nan 14 12 13 9 11 13 13 12 12 10 9 9 11 15 10 12 11 10 11 12 12 13 14 14 14 15 14 13 14 15 13 12 11 11 10 11 11 10 11 11 13 nan
nan 13 12 13 13 9 12 11 12 14 12 9 9 12 13 11 10 10 11 11 11 11 12 12 12 13 14 16 12 11 12 15 14 13 13 14 16 15 14 14 14 17 nan
nan 11 10 10 11 12 13 12 12 11 9 10 11 13 11 10 10 10 11 12 12 11 12 12 12 12 15 16 14 12 11 15 17 16 15 13 15 14 16 16 16 14 nan
nan nan nan nan nan nan nan nan nan nan nan nan nan nan nan nan nan nan nan nan nan nan nan nan nan nan nan nan nan nan nan nan nan nan nan nan nan nan nan nan nan nan nan
CAPE
0 0 0 0 52 294 476 416 1139 2036 1507 1558 2251 2573 2527 2287 2448 3005 3273 2987 2993 2856 2511 2033 1892 1917 1659 1214 893 914 655 555 315 854 515 356 346 266 159 225 340 616 370
5 0 0 2 2 43 578 600 753 1101 1128 1297 1808 2149 2027 1999 2635 3052 3130 2776 2829 2622 1883 1790 1588 1590 1691 1349 1014 944 710 546 432 689 620 100 213 512 398 304 61 209 518
0 1 4 2 1 9 519 858 829 856 1012 1313 1664 1952 1794 1918 2647 2902 2839 2668 2675 2441 1887 1733 1687 1630 1618 1159 1058 792 647 663 703 538 663 125 302 571 256 36 49 182 97
0 1 4 4 3 1 527 997 877 868 1016 1400 1887 1961 1792 2046 2461 2622 2654 2568 2473 2047 1835 1747 1689 1507 1332 1178 981 792 676 789 636 567 558 183 263 279 241 64 23 63 70
2 1 8 7 4 2 419 1000 636 1129 1341 1825 2071 1885 1876 2234 2340 2584 2532 2518 2485 1932 1683 1480 1431 964 563 678 702 875 1224 826 578 468 386 314 327 112 413 114 9 27 25
2 6 14 10 7 1 470 876 1012 1510 2156 2393 2354 1911 2339 2130 1766 2043 2271 2542 1955 1766 1460 1428 1034 185 110 55 85 0 249 1187 953 513 1015 507 353 135 455 146 103 61 56
2 6 11 13 9 0 492 700 1447 2839 3351 3160 2912 2303 2763 2357 1291 1344 1591 2172 2015 1780 1436 1253 863 439 273 419 9 0 0 0 0 916 704 567 442 280 80 379 112 84 49
3 4 10 21 5 0 809 1090 2599 3228 3581 3529 3330 3039 2957 2099 34 459 913 1983 1768 1538 1306 1076 997 741 631 597 573 395 377 267 125 172 478 284 221 553 113 170 125 89 61
1 6 25 43 0 0 1062 2074 3116 3064 3254 3423 3001 2913 2987 794 0 0 929 1610 1325 1024 853 979 931 790 120 15 484 286 435 218 0 0 1 0 3 2 20 47 14 6 30
2 3 0 3 25 6 1505 2319 2625 2332 2655 2802 2846 2978 2521 1111 1 5 778 632 859 703 883 862 0 225 0 0 383 253 81 80 10 6 3 0 0 2 0 210 2 1 7
2 3 5 0 31 719 1501 1717 1772 2167 2205 2290 2227 2182 1420 511 0 0 72 529 539 557 610 721 438 0 2 0 0 217 144 18 1 4 5 14 23 16 8 55 0 2 3
3 5 7 15 511 1187 2001 2049 1957 1740 1236 1209 761 944 481 42 0 0 5 55 265 671 601 475 170 0 0 1 0 0 0 0 11 9 3 1 4 5 4 34 219 183 85
10 51 104 356 1189 983 1341 1133 1176 1234 914 757 907 44 66 115 2 1 0 1 3 566 481 32 0 0 0 0 2 0 0 6 6 5 6 5 11 6 7 10 46 13 14
10 5 362 695 959 735 712 718 701 905 1108 1266 347 182 406 183 17 8 1 0 0 0 0 0 0 0 0 4 0 0 10 22 14 67 24 7 13 21 10 16 47 49 21
4 137 118 651 611 206 136 180 468 903 547 373 536 670 486 555 217 58 6 92 189 6 2 3 7 6 4 5 5 18 57 48 49 70 66 47 30 25 39 72 84 66 46
4 118 196 3 3 2 2 2 0 1 5 35 95 269 259 9 0 0 0 0 0 0 7 7 11 6 4 5 32 63 48 18 48 49 34 32 16 7 12 5 3 56 42
28 85 5 14 46 41 36 3 2 1 0 1 0 0 0 0 2 2 2 0 0 0 39 7 9 7 3 52 28 36 50 30 43 41 21 14 6 5 1 40 63 64 69
0 26 35 63 128 185 81 79 96 125 14 1 0 0 0 1 2 2 0 1 1 10 23 9 7 7 7 80 44 84 60 30 33 12 18 14 12 6 10 11 50 16 4
25 52 63 173 217 300 551 506 457 269 92 0 2 0 0 1 1 1 0 12 15 22 16 9 5 8 17 14 57 76 63 45 29 20 24 30 28 7 4 10 31 2 6
26 67 63 428 502 470 378 303 223 92 1 5 8 4 1 3 5 5 9 8 15 8 5 8 7 11 101 129 73 32 41 3 19 28 24 19 4 1 18 6 12 2 8
109 137 219 266 370 300 281 222 160 144 111 24 10 1 0 15 15 11 7 16 19 6 4 7 35 108 101 65 23 15 23 47 49 35 36 33 20 7 10 12 3 10 21
193 251 359 334 287 263 255 344 225 131 69 8 6 1 0 39 36 37 17 8 15 29 14 12 34 68 94 113 37 56 53 54 34 36 27 18 11 16 19 16 18 25 34
301 198 323 207 321 2 116 178 133 69 16 6 6 0 26 39 22 3 2 4 2 1 0 0 1 1 71 115 69 55 50 53 32 19 20 13 22 43 31 6 18 19 27
477 339 277 173 181 78 3 6 2 1 6 9 4 2 3 3 1 3 4 2 1 0 0 0 0 0 0 1 1 0 3 3 19 15 17 26 26 17 19 6 4 4 1
463 360 271 16 5 7 8 8 7 8 5 1 1 0 0 0 1 2 1 0 0 0 0 0 0 0 0 0 0 0 0 2 14 0 6 0 0 0 0 0 0 0 0
489 136 1 3 3 9 7 5 3 2 1 0 0 0 0 0 0 1 1 1 0 0 1 1 1 0 0 0 0 0 0 0 0 0 0 0 0 0 0 0 0 0 0